Time,TemperatureF,DewpointF,PressureIn,WindDirection,WindDirectionDegrees,WindSpeedMPH,WindSpeedGustMPH,Humidity,HourlyPrecipIn,Conditions,Clouds,dailyrainin,SoftwareType,DateUTC
2013-03-24 00:03:00,41.0,22.0,-100.00,North,5,5.0,9.0,47,-99.99,,,-99.99,,2013-03-24 04:03:00,
2013-03-24 00:13:00,40.0,22.0,-100.00,North,5,7.0,10.0,47,-99.99,,,-99.99,,2013-03-24 04:13:00,
2013-03-24 00:23:00,40.0,22.0,-100.00,North,5,7.0,10.0,47,-99.99,,,-99.99,,2013-03-24 04:23:00,
2013-03-24 00:33:00,41.0,21.0,-100.00,North,5,10.0,12.0,46,-99.99,,,-99.99,,2013-03-24 04:33:00,
2013-03-24 00:43:00,40.0,21.0,-100.00,North,5,7.0,12.0,46,-99.99,,,-99.99,,2013-03-24 04:43:00,
2013-03-24 00:52:00,40.0,21.0,-100.00,North,5,7.0,12.0,46,-99.99,,,-99.99,,2013-03-24 04:52:00,
2013-03-24 01:03:00,40.0,21.0,-100.00,North,5,9.0,11.0,46,-99.99,,,-99.99,,2013-03-24 05:03:00,
2013-03-24 01:13:00,40.0,22.0,-100.00,North,5,9.0,10.0,47,-99.99,,,-99.99,,2013-03-24 05:13:00,
2013-03-24 01:23:00,40.0,22.0,-100.00,North,5,9.0,10.0,47,-99.99,,,-99.99,,2013-03-24 05:23:00,
2013-03-24 01:32:00,40.0,21.0,-100.00,North,5,9.0,10.0,47,-99.99,,,-99.99,,2013-03-24 05:32:00,
2013-03-24 01:43:00,40.0,21.0,-100.00,North,5,9.0,11.0,47,-99.99,,,-99.99,,2013-03-24 05:43:00,
2013-03-24 01:52:00,40.0,21.0,-100.00,North,5,9.0,11.0,47,-99.99,,,-99.99,,2013-03-24 05:52:00,
2013-03-24 02:02:00,39.0,21.0,-100.00,North,5,10.0,11.0,48,-99.99,,,-99.99,,2013-03-24 06:02:00,
2013-03-24 02:12:00,39.0,21.0,-100.00,North,5,11.0,12.0,48,-99.99,,,-99.99,,2013-03-24 06:12:00,
2013-03-24 02:22:00,39.0,21.0,-100.00,North,5,11.0,12.0,48,-99.99,,,-99.99,,2013-03-24 06:22:00,
2013-03-24 02:32:00,39.0,21.0,-100.00,North,5,11.0,12.0,48,-99.99,,,-99.99,,2013-03-24 06:32:00,
2013-03-24 02:42:00,38.0,20.0,-100.00,North,5,10.0,12.0,48,-99.99,,,-99.99,,2013-03-24 06:42:00,
2013-03-24 02:52:00,38.0,20.0,-100.00,North,5,10.0,12.0,48,-99.99,,,-99.99,,2013-03-24 06:52:00,
2013-03-24 03:02:00,38.0,20.0,-100.00,North,5,9.0,10.0,48,-99.99,,,-99.99,,2013-03-24 07:02:00,
2013-03-24 03:12:00,38.0,21.0,-100.00,North,5,8.0,12.0,50,-99.99,,,-99.99,,2013-03-24 07:12:00,
2013-03-24 03:22:00,38.0,21.0,-100.00,North,5,8.0,12.0,50,-99.99,,,-99.99,,2013-03-24 07:22:00,
2013-03-24 03:32:00,38.0,22.0,-100.00,North,5,8.0,11.0,52,-99.99,,,-99.99,,2013-03-24 07:32:00,
2013-03-24 03:42:00,38.0,22.0,-100.00,North,5,8.0,10.0,53,-99.99,,,-99.99,,2013-03-24 07:42:00,
2013-03-24 03:52:00,38.0,22.0,-100.00,North,5,8.0,10.0,53,-99.99,,,-99.99,,2013-03-24 07:52:00,
2013-03-24 04:03:00,37.0,22.0,-100.00,North,5,9.0,11.0,54,-99.99,,,-99.99,,2013-03-24 08:03:00,
2013-03-24 04:12:00,37.0,24.0,-100.00,North,5,9.0,12.0,57,-99.99,,,-99.99,,2013-03-24 08:12:00,
2013-03-24 04:22:00,37.0,24.0,-100.00,North,5,9.0,12.0,57,-99.99,,,-99.99,,2013-03-24 08:22:00,
2013-03-24 04:42:00,38.0,24.0,-100.00,North,5,10.0,13.0,58,-99.99,,,-99.99,,2013-03-24 08:42:00,
2013-03-24 04:52:00,38.0,24.0,-100.00,North,5,10.0,13.0,58,-99.99,,,-99.99,,2013-03-24 08:52:00,
2013-03-24 05:02:00,37.0,24.0,-100.00,North,5,9.0,13.0,58,-99.99,,,-99.99,,2013-03-24 09:02:00,
2013-03-24 05:12:00,37.0,23.0,-100.00,North,5,9.0,12.0,57,-99.99,,,-99.99,,2013-03-24 09:12:00,
2013-03-24 05:22:00,37.0,23.0,-100.00,North,5,9.0,12.0,57,-99.99,,,-99.99,,2013-03-24 09:22:00,
2013-03-24 05:33:00,36.0,22.0,-100.00,North,5,9.0,9.0,56,-99.99,,,-99.99,,2013-03-24 09:33:00,
2013-03-24 05:42:00,36.0,22.0,-100.00,North,5,7.0,10.0,56,-99.99,,,-99.99,,2013-03-24 09:42:00,
2013-03-24 05:52:00,36.0,22.0,-100.00,North,5,7.0,10.0,56,-99.99,,,-99.99,,2013-03-24 09:52:00,
2013-03-24 06:03:00,36.0,22.0,-100.00,North,5,8.0,9.0,56,-99.99,,,-99.99,,2013-03-24 10:03:00,
2013-03-24 06:13:00,36.0,22.0,-100.00,North,5,9.0,9.0,57,-99.99,,,-99.99,,2013-03-24 10:13:00,
2013-03-24 06:23:00,36.0,22.0,-100.00,North,5,9.0,9.0,57,-99.99,,,-99.99,,2013-03-24 10:23:00,
2013-03-24 06:33:00,36.0,23.0,-100.00,North,5,9.0,10.0,58,-99.99,,,-99.99,,2013-03-24 10:33:00,
2013-03-24 06:42:00,36.0,24.0,-100.00,North,5,8.0,10.0,61,-99.99,,,-99.99,,2013-03-24 10:42:00,
2013-03-24 06:52:00,36.0,24.0,-100.00,North,5,8.0,10.0,61,-99.99,,,-99.99,,2013-03-24 10:52:00,
2013-03-24 07:03:00,36.0,25.0,-100.00,North,5,10.0,11.0,62,-99.99,,,-99.99,,2013-03-24 11:03:00,
2013-03-24 07:12:00,36.0,25.0,-100.00,North,5,7.0,10.0,62,-99.99,,,-99.99,,2013-03-24 11:12:00,
2013-03-24 07:22:00,36.0,25.0,-100.00,North,5,7.0,10.0,62,-99.99,,,-99.99,,2013-03-24 11:22:00,
2013-03-24 07:33:00,36.0,25.0,-100.00,North,5,8.0,10.0,63,-99.99,,,-99.99,,2013-03-24 11:33:00,
2013-03-24 07:42:00,36.0,24.0,-100.00,North,5,7.0,9.0,63,-99.99,,,-99.99,,2013-03-24 11:42:00,
2013-03-24 07:52:00,36.0,24.0,-100.00,North,5,7.0,9.0,63,-99.99,,,-99.99,,2013-03-24 11:52:00,
2013-03-24 08:03:00,36.0,24.0,-100.00,North,5,7.0,9.0,62,-99.99,,,-99.99,,2013-03-24 12:03:00,
2013-03-24 08:13:00,37.0,25.0,-100.00,North,5,8.0,11.0,60,-99.99,,,-99.99,,2013-03-24 12:13:00,
2013-03-24 08:23:00,37.0,25.0,-100.00,North,5,8.0,11.0,60,-99.99,,,-99.99,,2013-03-24 12:23:00,
2013-03-24 08:32:00,38.0,25.0,-100.00,North,5,10.0,11.0,59,-99.99,,,-99.99,,2013-03-24 12:32:00,
2013-03-24 08:42:00,39.0,25.0,-100.00,North,5,10.0,12.0,56,-99.99,,,-99.99,,2013-03-24 12:42:00,
2013-03-24 08:52:00,39.0,25.0,-100.00,North,5,10.0,12.0,56,-99.99,,,-99.99,,2013-03-24 12:52:00,
2013-03-24 09:02:00,40.0,24.0,-100.00,North,5,10.0,12.0,52,-99.99,,,-99.99,,2013-03-24 13:02:00,
2013-03-24 09:13:00,41.0,23.0,-100.00,North,5,10.0,12.0,49,-99.99,,,-99.99,,2013-03-24 13:13:00,
2013-03-24 09:23:00,41.0,23.0,-100.00,North,5,10.0,12.0,49,-99.99,,,-99.99,,2013-03-24 13:23:00,
2013-03-24 09:32:00,41.0,23.0,-100.00,North,5,8.0,11.0,48,-99.99,,,-99.99,,2013-03-24 13:32:00,
2013-03-24 09:42:00,42.0,23.0,-100.00,North,5,9.0,10.0,47,-99.99,,,-99.99,,2013-03-24 13:42:00,
2013-03-24 09:52:00,42.0,23.0,-100.00,North,5,9.0,10.0,47,-99.99,,,-99.99,,2013-03-24 13:52:00,
2013-03-24 10:02:00,42.0,22.0,-100.00,North,5,7.0,9.0,45,-99.99,,,-99.99,,2013-03-24 14:02:00,
2013-03-24 10:13:00,42.0,22.0,-100.00,North,5,7.0,9.0,44,-99.99,,,-99.99,,2013-03-24 14:13:00,
2013-03-24 10:22:00,42.0,22.0,-100.00,North,5,7.0,9.0,44,-99.99,,,-99.99,,2013-03-24 14:22:00,
2013-03-24 10:33:00,43.0,21.0,-100.00,North,5,11.0,13.0,42,-99.99,,,-99.99,,2013-03-24 14:33:00,
2013-03-24 10:42:00,43.0,20.0,-100.00,North,5,9.0,13.0,39,-99.99,,,-99.99,,2013-03-24 14:42:00,
2013-03-24 10:52:00,43.0,20.0,-100.00,North,5,9.0,13.0,39,-99.99,,,-99.99,,2013-03-24 14:52:00,
2013-03-24 11:13:00,41.0,19.0,-100.00,North,5,11.0,14.0,40,-99.99,,,-99.99,,2013-03-24 15:13:00,
2013-03-24 11:22:00,41.0,19.0,-100.00,North,5,11.0,14.0,40,-99.99,,,-99.99,,2013-03-24 15:22:00,
2013-03-24 11:33:00,41.0,19.0,-100.00,North,5,6.0,16.0,40,-99.99,,,-99.99,,2013-03-24 15:33:00,
2013-03-24 11:43:00,42.0,19.0,-100.00,North,5,11.0,15.0,40,-99.99,,,-99.99,,2013-03-24 15:43:00,
2013-03-24 11:53:00,42.0,19.0,-100.00,North,5,11.0,15.0,40,-99.99,,,-99.99,,2013-03-24 15:53:00,
2013-03-24 12:03:00,41.0,19.0,-100.00,North,5,11.0,13.0,40,-99.99,,,-99.99,,2013-03-24 16:03:00,
2013-03-24 12:13:00,43.0,19.0,-100.00,North,5,10.0,12.0,38,-99.99,,,-99.99,,2013-03-24 16:13:00,
2013-03-24 12:23:00,43.0,19.0,-100.00,North,5,10.0,12.0,38,-99.99,,,-99.99,,2013-03-24 16:23:00,
2013-03-24 12:33:00,42.0,19.0,-100.00,North,5,5.0,9.0,39,-99.99,,,-99.99,,2013-03-24 16:33:00,
2013-03-24 12:43:00,43.0,19.0,-100.00,North,5,4.0,10.0,38,-99.99,,,-99.99,,2013-03-24 16:43:00,
2013-03-24 12:52:00,43.0,19.0,-100.00,North,5,4.0,10.0,38,-99.99,,,-99.99,,2013-03-24 16:52:00,
2013-03-24 13:03:00,44.0,19.0,-100.00,North,5,4.0,7.0,37,-99.99,,,-99.99,,2013-03-24 17:03:00,
2013-03-24 13:12:00,44.0,19.0,-100.00,North,5,4.0,7.0,37,-99.99,,,-99.99,,2013-03-24 17:12:00,
2013-03-24 13:33:00,43.0,20.0,-100.00,North,5,9.0,11.0,39,-99.99,,,-99.99,,2013-03-24 17:33:00,
2013-03-24 13:42:00,42.0,20.0,-100.00,North,5,8.0,13.0,40,-99.99,,,-99.99,,2013-03-24 17:42:00,
2013-03-24 13:52:00,42.0,20.0,-100.00,North,5,8.0,13.0,40,-99.99,,,-99.99,,2013-03-24 17:52:00,
2013-03-24 14:03:00,42.0,20.0,-100.00,North,5,8.0,12.0,40,-99.99,,,-99.99,,2013-03-24 18:03:00,
2013-03-24 14:12:00,42.0,20.0,-100.00,North,5,8.0,12.0,40,-99.99,,,-99.99,,2013-03-24 18:12:00,
2013-03-24 14:33:00,42.0,20.0,-100.00,North,5,7.0,11.0,42,-99.99,,,-99.99,,2013-03-24 18:33:00,
2013-03-24 14:43:00,41.0,20.0,-100.00,North,5,9.0,13.0,42,-99.99,,,-99.99,,2013-03-24 18:43:00,
2013-03-24 14:52:00,41.0,20.0,-100.00,North,5,9.0,13.0,42,-99.99,,,-99.99,,2013-03-24 18:52:00,
2013-03-24 15:03:00,41.0,20.0,-100.00,North,5,9.0,12.0,42,-99.99,,,-99.99,,2013-03-24 19:03:00,
2013-03-24 15:12:00,41.0,20.0,-100.00,North,5,6.0,11.0,42,-99.99,,,-99.99,,2013-03-24 19:12:00,
2013-03-24 15:23:00,41.0,20.0,-100.00,North,5,6.0,11.0,42,-99.99,,,-99.99,,2013-03-24 19:23:00,
2013-03-24 15:32:00,41.0,20.0,-100.00,North,5,3.0,13.0,43,-99.99,,,-99.99,,2013-03-24 19:32:00,
2013-03-24 15:43:00,41.0,21.0,-100.00,North,5,4.0,10.0,43,-99.99,,,-99.99,,2013-03-24 19:43:00,
2013-03-24 15:52:00,41.0,21.0,-100.00,North,5,4.0,10.0,43,-99.99,,,-99.99,,2013-03-24 19:52:00,
2013-03-24 16:12:00,41.0,21.0,-100.00,North,5,6.0,10.0,44,-99.99,,,-99.99,,2013-03-24 20:12:00,
2013-03-24 16:22:00,41.0,21.0,-100.00,North,5,6.0,10.0,44,-99.99,,,-99.99,,2013-03-24 20:22:00,
2013-03-24 16:32:00,41.0,21.0,-100.00,North,5,7.0,9.0,44,-99.99,,,-99.99,,2013-03-24 20:32:00,
2013-03-24 16:43:00,40.0,20.0,-100.00,North,5,5.0,10.0,44,-99.99,,,-99.99,,2013-03-24 20:43:00,
2013-03-24 16:53:00,40.0,20.0,-100.00,North,5,5.0,10.0,44,-99.99,,,-99.99,,2013-03-24 20:53:00,
2013-03-24 17:03:00,41.0,21.0,-100.00,North,5,9.0,13.0,45,-99.99,,,-99.99,,2013-03-24 21:03:00,
2013-03-24 17:12:00,40.0,21.0,-100.00,North,5,8.0,11.0,45,-99.99,,,-99.99,,2013-03-24 21:12:00,
2013-03-24 17:23:00,40.0,21.0,-100.00,North,5,8.0,11.0,45,-99.99,,,-99.99,,2013-03-24 21:23:00,
2013-03-24 17:33:00,40.0,21.0,-100.00,North,5,7.0,11.0,46,-99.99,,,-99.99,,2013-03-24 21:33:00,
2013-03-24 17:43:00,40.0,21.0,-100.00,North,5,8.0,12.0,46,-99.99,,,-99.99,,2013-03-24 21:43:00,
2013-03-24 17:53:00,40.0,21.0,-100.00,North,5,8.0,12.0,46,-99.99,,,-99.99,,2013-03-24 21:53:00,
2013-03-24 18:03:00,40.0,21.0,-100.00,North,5,6.0,11.0,46,-99.99,,,-99.99,,2013-03-24 22:03:00,
2013-03-24 18:13:00,40.0,21.0,-100.00,North,5,10.0,13.0,47,-99.99,,,-99.99,,2013-03-24 22:13:00,
2013-03-24 18:23:00,40.0,21.0,-100.00,North,5,10.0,13.0,47,-99.99,,,-99.99,,2013-03-24 22:23:00,
2013-03-24 18:33:00,40.0,21.0,-100.00,North,5,9.0,13.0,47,-99.99,,,-99.99,,2013-03-24 22:33:00,
2013-03-24 18:43:00,40.0,22.0,-100.00,North,5,8.0,13.0,48,-99.99,,,-99.99,,2013-03-24 22:43:00,
2013-03-24 18:52:00,40.0,22.0,-100.00,North,5,8.0,13.0,48,-99.99,,,-99.99,,2013-03-24 22:52:00,
2013-03-24 19:03:00,40.0,22.0,-100.00,North,5,8.0,11.0,48,-99.99,,,-99.99,,2013-03-24 23:03:00,
2013-03-24 19:12:00,40.0,22.0,-100.00,North,5,8.0,11.0,48,-99.99,,,-99.99,,2013-03-24 23:12:00,
2013-03-24 19:32:00,40.0,22.0,-100.00,North,5,8.0,11.0,49,-99.99,,,-99.99,,2013-03-24 23:32:00,
2013-03-24 19:42:00,40.0,22.0,-100.00,North,5,4.0,7.0,49,-99.99,,,-99.99,,2013-03-24 23:42:00,
2013-03-24 19:52:00,40.0,22.0,-100.00,North,5,4.0,7.0,49,-99.99,,,-99.99,,2013-03-24 23:52:00,
2013-03-24 20:02:00,40.0,23.0,-100.00,North,5,7.0,10.0,50,-99.99,,,-99.99,,2013-03-25 00:02:00,
2013-03-24 20:12:00,40.0,23.0,-100.00,North,5,7.0,10.0,50,-99.99,,,-99.99,,2013-03-25 00:12:00,
2013-03-24 20:33:00,40.0,23.0,-100.00,North,5,7.0,11.0,51,-99.99,,,-99.99,,2013-03-25 00:33:00,
2013-03-24 20:43:00,40.0,23.0,-100.00,North,5,4.0,8.0,52,-99.99,,,-99.99,,2013-03-25 00:43:00,
2013-03-24 20:52:00,40.0,23.0,-100.00,North,5,4.0,8.0,52,-99.99,,,-99.99,,2013-03-25 00:52:00,
2013-03-24 21:02:00,40.0,24.0,-100.00,North,5,3.0,6.0,52,-99.99,,,-99.99,,2013-03-25 01:02:00,
2013-03-24 21:12:00,40.0,24.0,-100.00,North,5,2.0,7.0,52,-99.99,,,-99.99,,2013-03-25 01:12:00,
2013-03-24 21:22:00,40.0,24.0,-100.00,North,5,2.0,7.0,52,-99.99,,,-99.99,,2013-03-25 01:22:00,
2013-03-24 21:32:00,40.0,24.0,-100.00,North,5,3.0,7.0,53,-99.99,,,-99.99,,2013-03-25 01:32:00,
2013-03-24 21:42:00,40.0,24.0,-100.00,North,5,5.0,6.0,53,-99.99,,,-99.99,,2013-03-25 01:42:00,
2013-03-24 21:52:00,40.0,24.0,-100.00,North,5,5.0,6.0,53,-99.99,,,-99.99,,2013-03-25 01:52:00,
2013-03-24 22:02:00,40.0,24.0,-100.00,North,5,6.0,8.0,53,-99.99,,,-99.99,,2013-03-25 02:02:00,
2013-03-24 22:12:00,40.0,25.0,-100.00,North,5,7.0,11.0,54,-99.99,,,-99.99,,2013-03-25 02:12:00,
2013-03-24 22:23:00,40.0,25.0,-100.00,North,5,7.0,11.0,54,-99.99,,,-99.99,,2013-03-25 02:23:00,
2013-03-24 22:33:00,40.0,25.0,-100.00,North,5,9.0,11.0,55,-99.99,,,-99.99,,2013-03-25 02:33:00,
2013-03-24 22:43:00,40.0,25.0,-100.00,North,5,9.0,11.0,55,-99.99,,,-99.99,,2013-03-25 02:43:00,